Location: Exeidioux
(45.6312°N, 1.6819°E)
Time: 20:46:13
(UTC+00:00)

Cosmos 1689 Rocket - Pass Details

Date: 03 March 2021
Orbit: 350 x 361 km, 97.5° (Epoch: 13 April)

Event Time Altitude Azimuth Distance (km) Brightness Sun altitude
Rises 18:56:03 0° 9° (N) 2,208 5.9 -13.5°
Reaches altitude 10° 18:58:00 10° 6° (N) 1,359 4.8 -13.9°
Maximum altitude 19:00:51 60° 285° (WNW) 424 2.5 -14.4°
Drops below altitude 10° 19:03:42 10° 205° (SSW) 1,354 5.1 -14.9°
Sets 19:05:38 0° 201° (SSW) 2,198 6.1 -15.2°
